Wasilla, AK

5:21 AM AKDT on October 17, 2017 (GMT -0800)
Wasilla

Weather History for PAWS - October, 2013

Change the Weather History Date:

Sunday, October 13, 2013

  Actual Average Record
Temperature  
Mean Temperature 44 °F -  
Max Temperature 50 °F 45 °F 67 °F (1969)
Min Temperature 37 °F 28 °F 15 °F (1980)
Degree Days  
Heating Degree Days 22    
Moisture  
Dew Point 35 °F    
Average Humidity 73    
Maximum Humidity 87    
Minimum Humidity 54    
Precipitation  
Precipitation 0.25 in - - ()
Sea Level Pressure  
Sea Level Pressure 29.54 in    
Wind  
Wind Speed 14 mph (East)    
Max Wind Speed 23 mph    
Max Gust Speed 41 mph    
Visibility 10 miles    
Events      
Averages and records for this station are not official NWS values.
T = Trace of Precipitation, MM = Missing Value Source: NWS Daily Summary

Daily Weather History Graph

Daily Weather History Graph

Search for Another Location

Airport or City:

Trip Planner

Search our weather history database for the weather conditions in past years. The results will help you decide how hot, cold, wet, or windy it might be!

Date:

Astronomy

Oct. 13, 2013 Rise Set
Actual Time 8:37 AM AKDT 6:50 PM AKDT
Civil Twilight 7:52 AM AKDT 7:34 PM AKDT
Nautical Twilight 7:02 AM AKDT 8:24 PM AKDT
Astronomical Twilight 6:10 AM AKDT 9:15 PM AKDT
Moon 5:04 PM AKDT (10/13) 1:29 AM AKDT (10/13)
Length of Visible Light 11h 41m
Length of Day
10h 12m
Waxing Gibbous, 71% of the Moon is Illuminated
Oct 13
Waxing Gibbous
Oct 18
Full
Oct 26
Last Quarter
Nov 3
New
Nov 9
First Quarter

Hourly Weather History & Observations

Time (AKDT) Temp. Windchill Dew Point Humidity Pressure Visibility Wind Dir Wind Speed Gust Speed Precip Events Conditions
12:16 AM - - - N/A% 29.63 in 10.0 mi East 19.6 mph 29.9 mph N/A   Partly Cloudy
12:36 AM - - - N/A% 29.62 in 10.0 mi East 18.4 mph 28.8 mph N/A   Clear
12:56 AM - - - N/A% 29.61 in 10.0 mi East 19.6 mph 33.4 mph N/A   Clear
1:16 AM - - - N/A% 29.59 in 10.0 mi East 17.3 mph 27.6 mph N/A   Clear
1:36 AM - - - N/A% 29.59 in 10.0 mi East 17.3 mph 35.7 mph N/A   Clear
1:56 AM - - - N/A% 29.59 in 10.0 mi East 19.6 mph 32.2 mph N/A   Partly Cloudy
2:16 AM - - - N/A% 29.58 in 10.0 mi East 16.1 mph 29.9 mph N/A   Mostly Cloudy
2:36 AM - - - N/A% 29.56 in 10.0 mi East 20.7 mph 32.2 mph N/A   Partly Cloudy
2:56 AM - - - N/A% 29.58 in 10.0 mi East 17.3 mph 26.5 mph N/A   Mostly Cloudy
3:16 AM 50.0 °F - 33.8 °F 54% 29.58 in 10.0 mi East 15.0 mph 27.6 mph N/A   Overcast
3:36 AM 50.0 °F - 33.8 °F 54% 29.58 in 10.0 mi East 20.7 mph 31.1 mph N/A   Mostly Cloudy
3:56 AM - - - N/A% 29.55 in 10.0 mi ENE 20.7 mph 31.1 mph N/A   Mostly Cloudy
4:16 AM - - - N/A% 29.56 in 10.0 mi ENE 23.0 mph 41.4 mph N/A   Partly Cloudy
4:36 AM - - - N/A% 29.54 in 10.0 mi East 18.4 mph 27.6 mph N/A   Partly Cloudy
4:56 AM - - - N/A% 29.53 in 10.0 mi East 16.1 mph 29.9 mph N/A   Scattered Clouds
5:16 AM - - - N/A% 29.52 in 10.0 mi ENE 15.0 mph 25.3 mph N/A   Overcast
5:36 AM - - - N/A% 29.52 in 10.0 mi NE 19.6 mph 27.6 mph N/A   Overcast
5:56 AM - - - N/A% 29.51 in 10.0 mi ENE 17.3 mph 31.1 mph N/A   Overcast
6:16 AM - - - N/A% 29.49 in 10.0 mi ENE 13.8 mph 27.6 mph N/A   Overcast
6:36 AM - - - N/A% 29.47 in 10.0 mi ENE 17.3 mph 28.8 mph N/A   Overcast
6:56 AM 48.2 °F - 33.8 °F 58% 29.49 in 10.0 mi East 16.1 mph 28.8 mph N/A   Overcast
7:16 AM 48.2 °F - 33.8 °F 58% 29.49 in 10.0 mi East 15.0 mph 25.3 mph N/A   Overcast
7:36 AM 48.2 °F - 33.8 °F 58% 29.48 in 10.0 mi East 16.1 mph 27.6 mph N/A   Overcast
7:56 AM 48.2 °F - 33.8 °F 58% 29.49 in 10.0 mi East 13.8 mph 24.2 mph N/A   Overcast
8:16 AM 48.2 °F - 33.8 °F 58% 29.47 in 10.0 mi East 17.3 mph 26.5 mph N/A   Overcast
8:36 AM 48.2 °F - 33.8 °F 58% 29.47 in 10.0 mi East 15.0 mph 27.6 mph N/A   Overcast
8:56 AM 48.2 °F - 33.8 °F 58% 29.47 in 10.0 mi East 17.3 mph 29.9 mph N/A   Overcast
9:16 AM 46.4 °F 39.8 °F 33.8 °F 62% 29.45 in 10.0 mi East 16.1 mph 33.4 mph N/A   Overcast
9:36 AM 46.4 °F 38.7 °F 33.8 °F 62% 29.46 in 10.0 mi East 20.7 mph 29.9 mph N/A   Overcast
9:56 AM 48.2 °F - 35.6 °F 62% 29.46 in 10.0 mi ENE 13.8 mph 25.3 mph N/A   Overcast
10:16 AM 48.2 °F - 35.6 °F 62% 29.46 in 10.0 mi East 11.5 mph 25.3 mph N/A   Overcast
10:36 AM 48.2 °F - 35.6 °F 62% 29.46 in 10.0 mi East 9.2 mph 21.9 mph N/A   Overcast
10:56 AM 48.2 °F - 35.6 °F 62% 29.45 in 10.0 mi East 15.0 mph 24.2 mph N/A   Overcast
11:16 AM 46.4 °F 41.1 °F 35.6 °F 66% 29.44 in 10.0 mi East 11.5 mph 17.3 mph N/A   Overcast
11:36 AM 46.4 °F 42.4 °F 35.6 °F 66% 29.44 in 10.0 mi ESE 8.1 mph 23.0 mph N/A   Overcast
11:56 AM 46.4 °F 41.1 °F 35.6 °F 66% 29.44 in 10.0 mi ENE 11.5 mph - N/A   Overcast
12:16 PM 46.4 °F 41.9 °F 35.6 °F 66% 29.44 in 10.0 mi East 9.2 mph - N/A   Overcast
12:36 PM 44.6 °F 43.1 °F 35.6 °F 71% 29.44 in 10.0 mi East 3.5 mph - N/A   Overcast
12:56 PM 44.6 °F 43.1 °F 35.6 °F 71% 29.44 in 10.0 mi SE 3.5 mph - N/A   Overcast
1:16 PM 42.8 °F - 37.4 °F 81% 29.44 in 10.0 mi Calm Calm - N/A   Overcast
1:36 PM 42.8 °F 38.0 °F 35.6 °F 76% 29.46 in 10.0 mi WSW 8.1 mph - N/A   Overcast
1:56 PM 39.2 °F 31.2 °F 35.6 °F 87% 29.48 in 10.0 mi West 13.8 mph 17.3 mph 0.03 in   Overcast
2:16 PM 39.2 °F 33.6 °F 35.6 °F 87% 29.50 in 10.0 mi WSW 8.1 mph 17.3 mph 0.05 in   Overcast
2:36 PM 39.2 °F 32.0 °F 35.6 °F 87% 29.50 in 10.0 mi SW 11.5 mph - 0.08 in   Overcast
2:56 PM 39.2 °F 35.0 °F 35.6 °F 87% 29.51 in 10.0 mi SW 5.8 mph - 0.13 in   Overcast
3:16 PM 39.2 °F 35.0 °F 35.6 °F 87% 29.52 in 10.0 mi WSW 5.8 mph - 0.02 in   Overcast
3:36 PM 39.2 °F 37.0 °F 35.6 °F 87% 29.52 in 10.0 mi West 3.5 mph - 0.04 in   Overcast
3:56 PM 39.2 °F 37.0 °F 35.6 °F 87% 29.53 in 10.0 mi ENE 3.5 mph - 0.05 in   Overcast
4:16 PM 41.0 °F 38.0 °F 35.6 °F 81% 29.53 in 10.0 mi East 4.6 mph - 0.01 in   Overcast
4:36 PM 41.0 °F 39.0 °F 35.6 °F 81% 29.54 in 10.0 mi ENE 3.5 mph - 0.03 in   Overcast
4:56 PM 41.0 °F 37.1 °F 37.4 °F 87% 29.55 in 10.0 mi ENE 5.8 mph - 0.03 in   Overcast
5:16 PM 41.0 °F 39.0 °F 35.6 °F 81% 29.55 in 10.0 mi East 3.5 mph - N/A   Mostly Cloudy
5:36 PM 41.0 °F 38.0 °F 35.6 °F 81% 29.56 in 10.0 mi East 4.6 mph - N/A   Scattered Clouds
5:56 PM 39.2 °F 35.9 °F 35.6 °F 87% 29.57 in 10.0 mi East 4.6 mph - N/A   Mostly Cloudy
6:16 PM 39.2 °F 35.9 °F 35.6 °F 87% 29.58 in 10.0 mi ESE 4.6 mph - N/A   Mostly Cloudy
6:36 PM 39.2 °F 34.2 °F 35.6 °F 87% 29.58 in 10.0 mi East 6.9 mph - 0.01 in   Mostly Cloudy
6:56 PM 39.2 °F 35.0 °F 33.8 °F 81% 29.59 in 10.0 mi East 5.8 mph - 0.01 in   Partly Cloudy
7:16 PM 39.2 °F 34.2 °F 33.8 °F 81% 29.59 in 10.0 mi ENE 6.9 mph - N/A   Clear
7:36 PM 39.2 °F 34.2 °F 33.8 °F 81% 29.60 in 10.0 mi ENE 6.9 mph - N/A   Clear
7:56 PM 39.2 °F 33.0 °F 33.8 °F 81% 29.61 in 10.0 mi ENE 9.2 mph - N/A   Clear
8:16 PM 37.4 °F 32.8 °F 33.8 °F 87% 29.61 in 10.0 mi NE 5.8 mph - N/A   Clear
8:36 PM 39.2 °F 33.6 °F 33.8 °F 81% 29.62 in 10.0 mi ENE 8.1 mph - N/A   Mostly Cloudy
8:56 PM 39.2 °F 37.0 °F 33.8 °F 81% 29.63 in 10.0 mi East 3.5 mph - N/A   Overcast
9:16 PM 39.2 °F 33.6 °F 33.8 °F 81% 29.63 in 10.0 mi ENE 8.1 mph - N/A   Overcast
9:36 PM 39.2 °F 34.2 °F 33.8 °F 81% 29.64 in 10.0 mi East 6.9 mph - N/A   Overcast
9:56 PM 41.0 °F 37.1 °F 33.8 °F 76% 29.64 in 10.0 mi East 5.8 mph - N/A   Overcast
10:16 PM 41.0 °F 36.4 °F 33.8 °F 76% 29.65 in 10.0 mi ENE 6.9 mph - N/A   Overcast
10:36 PM 42.8 °F 41.1 °F 33.8 °F 70% 29.66 in 10.0 mi SE 3.5 mph - N/A   Overcast
10:56 PM 42.8 °F 38.6 °F 33.8 °F 70% 29.66 in 10.0 mi NE 6.9 mph - N/A   Overcast
11:16 PM 42.8 °F 39.3 °F 33.8 °F 70% 29.67 in 10.0 mi ENE 5.8 mph - N/A   Overcast
11:36 PM 42.8 °F 38.6 °F 33.8 °F 70% 29.67 in 10.0 mi ENE 6.9 mph - N/A   Overcast
11:56 PM 42.8 °F 39.3 °F 33.8 °F 70% 29.68 in 10.0 mi ENE 5.8 mph - N/A   Overcast